Regional Weather Roundup
Issued by NWS

Home | Current Version | Previous Version | Graphics & Text | Print | Product List | Glossary On
Versions: 1 2 3 4 5 6 7 8 9 10 11 12 13 14 15 16 17 18 19 20 21 22 23 24 25 26 27 28 29 30 31 32 33 34 35 36 37 38 39 40 41 42 43 44 45 46 47 48 49 50
000
ASUS43 KTOP 270159
RWRKS

WEATHER ROUNDUP FOR KANSAS
NATIONAL WEATHER SERVICE GOODLAND KS
900 PM CDT SUN APR 26 2015

NOTE:  "FAIR" INDICATES FEW OR NO CLOUDS BELOW 12,000 FEET WITH NO
SIGNIFICANT WEATHER AND/OR OBSTRUCTIONS TO VISIBILITY.

KSZ001>006-013>018-027>032-041>047-270300-
NORTHWEST KANSAS

CITY           SKY/WX    TMP DP  RH WIND       PRES   REMARKS
GOODLAND       LGT RAIN  44  43  96 E14       30.04R FOG
HAYS           CLOUDY    48  37  66 NE13      29.99R
HILL CITY      CLOUDY    48  42  80 E9        30.02R
RUSSELL        CLOUDY    50  44  80 NE7       29.97R
$$

KSZ061>065-074>080-084>089-270300-
SOUTHWEST KANSAS

CITY           SKY/WX    TMP DP  RH WIND       PRES   REMARKS
DODGE CITY     CLOUDY    49  44  83 E12       29.97R
ELKHART          N/A     47  43  87 NE15        N/A
GARDEN CITY    CLOUDY    46  46 100 E10       29.98R FOG
GREAT BEND     CLOUDY    50  41  71 NE13      29.96R
LIBERAL        CLOUDY    50  46  87 E9        29.95R
$$

KSZ066>073-081>083-090>101-270300-
SOUTHEAST KANSAS

CITY           SKY/WX    TMP DP  RH WIND       PRES   REMARKS
CHANUTE        MOCLDY    53  46  77 NE7       29.90S
COFFEYVILLE    CLOUDY    53  45  74 NE13      29.88R
HUTCHINSON     CLOUDY    53  45  74 NE7       29.92R
MEDICINE LODGE   N/A     52  46  80 NE12      29.91R
NEWTON         CLOUDY    52  43  71 NE7       29.93R
PARSONS        MOCLDY    53  46  77 VRB6      29.90R
WICHITA INTL   CLOUDY    53  44  71 NE12      29.89R
WICHITA JABRA  CLOUDY    51  45  79 NE10      29.89R
WINFIELD       CLOUDY    53  45  74 NE12      29.90R
$$

KSZ007>012-019>026-033>040-048>060-102>105-270300-
NORTHEAST KANSAS

CITY           SKY/WX    TMP DP  RH WIND       PRES   REMARKS
CONCORDIA      CLEAR     51  43  74 NE7       30.00R
EMPORIA        MOCLDY    52  44  74 NE8       29.93R
LAWRENCE       PTCLDY    53  39  59 E3        29.99R
MANHATTAN      PTCLDY    52  44  74 NE7       29.97R
OLATHE IND     PTCLDY    54  38  54 E6        29.99R
OLATHE EXE     PTCLDY    56  36  47 E3        29.98R
SALINA         MOCLDY    55  44  66 NE6       29.96R
TOPEKA BILLARD PTCLDY    55  40  56 E7        29.99R
TOPEKA FORBES  PTCLDY    56  40  55 NE7       29.97R
$$



USA.gov is the U.S. government's official web portal to all federal, state and local government web resources and services.